McCook, NE

3:53 AM CST on January 17, 2018 (GMT -0600)
McCook Municipal

Weather History for KMCK - March, 2012

Change the Weather History Date:

Sunday, March 18, 2012

  Actual Average Record
Temperature  
Mean Temperature 66 °F 40 °F  
Max Temperature 82 °F 55 °F 84 °F (2007)
Min Temperature 50 °F 25 °F -4 °F (1958)
Cooling Degree Days 1    
Growing Degree Days 16 (Base 50)    
Moisture  
Dew Point 51 °F    
Average Humidity 61    
Maximum Humidity 90    
Minimum Humidity 23    
Precipitation  
Precipitation 0.00 in 0.04 in 0.91 in (2003)
Month to date precipitation 0.06 0.72  
Year to date precipitation 0.43 1.85  
Sea Level Pressure  
Sea Level Pressure 29.50 in    
Wind  
Wind Speed 22 mph (South)    
Max Wind Speed 33 mph    
Max Gust Speed 46 mph    
Visibility 10 miles    
Events      
T = Trace of Precipitation, MM = Missing Value Source: NWS Daily Summary

Daily Weather History Graph

Daily Weather History Graph

Search for Another Location

Airport or City:

Trip Planner

Search our weather history database for the weather conditions in past years. The results will help you decide how hot, cold, wet, or windy it might be!

Date:

Astronomy

Mar. 18, 2012 Rise Set
Actual Time 7:48 AM CDT 7:52 PM CDT
Civil Twilight 7:21 AM CDT 8:20 PM CDT
Nautical Twilight 6:49 AM CDT 8:51 PM CDT
Astronomical Twilight 6:17 AM CDT 9:23 PM CDT
Moon 5:28 AM CDT (3/18) 4:21 PM CDT (3/18)
Length of Visible Light 12h 58m
Length of Day
12h 04m
Waning Crescent, 15% of the Moon is Illuminated
Mar 18
Waning Crescent
Mar 22
New
Mar 30
First Quarter
Apr 6
Full
Apr 13
Last Quarter

Hourly Weather History & Observations

Time (CDT) Temp. Dew Point Humidity Pressure Visibility Wind Dir Wind Speed Gust Speed Precip Events Conditions
12:53 AM 66.0 °F 55.9 °F 70% 29.55 in 10.0 mi South 26.5 mph 39.1 mph N/A   Clear
1:53 AM 64.4 °F 57.2 °F 77% 29.58 in 10.0 mi South 28.8 mph 36.8 mph N/A   Clear
2:53 AM 63.0 °F 57.9 °F 84% 29.51 in 9.0 mi South 23.0 mph 34.5 mph N/A   Clear
3:53 AM 60.8 °F 57.2 °F 88% 29.58 in 8.0 mi South 19.6 mph 28.8 mph N/A   Clear
4:53 AM 59.0 °F 55.0 °F 87% 29.51 in 8.0 mi SSW 13.8 mph - N/A   Clear
5:53 AM 55.9 °F 53.1 °F 90% 29.52 in 8.0 mi SSW 8.1 mph 17.3 mph N/A   Clear
6:53 AM 54.0 °F 51.1 °F 90% 29.54 in 8.0 mi SSW 6.9 mph - N/A   Clear
7:53 AM 51.1 °F 46.0 °F 83% 29.57 in 10.0 mi SSW 5.8 mph - N/A   Clear
8:53 AM 52.0 °F 42.1 °F 69% 29.58 in 10.0 mi WSW 6.9 mph - N/A   Clear
9:53 AM 57.0 °F 39.0 °F 51% 29.57 in 10.0 mi South 9.2 mph - N/A   Clear
10:53 AM 64.9 °F 33.1 °F 31% 29.56 in 10.0 mi South 11.5 mph - N/A   Clear
11:53 AM 72.0 °F 32.0 °F 23% 29.54 in 10.0 mi South 20.7 mph 25.3 mph N/A   Clear
12:53 PM 79.0 °F 39.0 °F 24% 29.50 in 10.0 mi SSE 25.3 mph 32.2 mph N/A   Clear
1:53 PM 80.1 °F 48.0 °F 32% 29.49 in 10.0 mi SSE 28.8 mph 38.0 mph N/A   Clear
2:53 PM 81.0 °F 46.9 °F 30% 29.46 in 10.0 mi SSE 26.5 mph 39.1 mph N/A   Clear
3:53 PM 81.0 °F 46.9 °F 30% 29.43 in 10.0 mi SSE 21.9 mph 34.5 mph N/A   Clear
4:53 PM 78.1 °F 52.0 °F 40% 29.42 in 9.0 mi South 29.9 mph 42.6 mph N/A   Clear
5:53 PM 75.9 °F 51.1 °F 42% 29.41 in 10.0 mi SSE 25.3 mph 39.1 mph N/A   Clear
6:53 PM 73.9 °F 54.0 °F 50% 29.41 in 10.0 mi SSE 24.2 mph 39.1 mph N/A   Clear
7:53 PM 72.0 °F 54.0 °F 53% 29.41 in 10.0 mi SSE 27.6 mph 44.9 mph N/A   Clear
8:53 PM 68.0 °F 57.0 °F 68% 29.45 in 10.0 mi SSE 27.6 mph 40.3 mph N/A   Scattered Clouds
9:03 PM 66.2 °F 57.2 °F 73% 29.48 in 10.0 mi SSE 26.5 mph 36.8 mph N/A   Mostly Cloudy
9:18 PM 66.2 °F 57.2 °F 73% 29.50 in 10.0 mi SSE 31.1 mph 43.7 mph N/A   Scattered Clouds
9:53 PM 66.0 °F 57.0 °F 73% 29.45 in 10.0 mi SSE 28.8 mph 40.3 mph N/A   Partly Cloudy
10:53 PM 64.9 °F 57.0 °F 75% 29.45 in 10.0 mi South 33.4 mph 46.0 mph N/A   Partly Cloudy
11:53 PM 64.0 °F 57.0 °F 78% 29.43 in 10.0 mi South 28.8 mph 39.1 mph N/A   Clear